Location: Little Baddow
(51.7333°N, 0.5667°E)
Time: 15:19:11
(UTC+00:00)

COSMOS 2428 - Pass Details

Date: 20 February 2026
Orbit: 843 x 856 km, 70.9° (Epoch: 6 March)

Event Time Altitude Azimuth Distance (km) Brightness Sun altitude
Rises 06:22:29 0° 176° (S) 3,399 6.0 -6.8°
Reaches altitude 10° 06:25:09 10° 166° (SSE) 2,471 5.5 -6.4°
Maximum altitude 06:30:05 31° 106° (ESE) 1,442 4.9 -5.7°
Drops below altitude 10° 06:35:02 10° 46° (NE) 2,493 5.7 -4.9°
Sets 06:37:44 0° 36° (NE) 3,436 6.2 -4.5°
